Location: Unspecified
(49.2170°N, 0.0000°E)
Time: 13:35:36
(UTC+00:00)

SR - Pass Details

Date: 28 January 2021
Orbit: 573 x 882 km, 66.7° (Epoch: 05 March)

Event Time Altitude Azimuth Distance (km) Brightness Sun altitude
Exits shadow 05:36:34 27° 321° (NW) 1,442 ? -19.5°
Maximum altitude 05:36:49 27° 326° (NW) 1,443 ? -19.5°
Drops below altitude 10° 05:41:26 10° 23° (NNE) 2,390 ? -18.7°
Sets 05:44:21 0° 36° (NE) 3,373 ? -18.2°
